Content
SEND FEEDBACK

Daily
Averages
Monthly
Summary
Brazil

BONSUCESSO, RIO DE JANEIRO


Home > South America > Brazil > Rio De Janeiro
Elevation: 69 feet     Latitude: 21 42S     Longitude: 041 18W

WEATHER
 
SELECT A DAY
Number of Records: 52,697;   Date Range: 6/12/97 - 7/23/14
 
SHARE

PRINT THIS DATA

[ ← Previous Day ]
WEATHER ALMANAC - JANUARY 31, 2013
[ Next Day → ]
[ °C ]   °F
Weather ElementAverageHighLow
Temperature81.9 °F89.6 °F (1:00 pm)75.2 °F (7:00 am)
Dewpoint74 °F75.2 °F (2:00 pm)71.6 °F (1:00 pm)
Humidity76.8 %94 % (7:00 am)55 % (1:00 pm)
Barometer29.90 in29.94 in (10:00 am)29.86 in (4:00 pm)
Wind Speed6.2 mph16.1 mph (5:00 pm)
Weather ElementAverage
Visibility8.8 mi
Wind DirectionSSE (148.4 °)

Weather ElementTotal
Precipitation---
Cooling Degree Days17.4 (Base 65)
Growing Degree Days32.4 (Base 50)
Averaged from 20 records on January 31, 2013
WEATHER CONDITIONS BREAKOUT
WIND DIRECTION BREAKOUT
WEATHER BY HOUR - JANUARY 31, 2013
[ °C ]   °F
Local TimeTemperatureDewpointHumidityBarometerVisibilityWind DirectionWind SpeedGust SpeedPrecipitationEventsConditions
7:00 AM75.2 °F73.4 °F94 %29.92 in6.2 miSSW (210°)4.6 mphMostly Cloudy
8:00 AM78.8 °F73.4 °F83 %29.92 in6.2 miSSW (200°)4.6 mphScattered Clouds
9:00 AM80.6 °F73.4 °F79 %29.92 in6.2 miSW (220°)6.9 mphPartly Cloudy
10:00 AM83.0 °F74.0 °F69 %29.94 in31.0 miSE (140°)3.5 mphPartly Cloudy
10:00 AM82.4 °F73.4 °F74 %29.92 in6.2 miSouth (190°)6.9 mphScattered Clouds
11:00 AM84.2 °F73.4 °F70 %29.92 in6.2 miSSW (200°)6.9 mphScattered Clouds
12:00 PM86.0 °F73.4 °F66 %29.92 in6.2 miSW (220°)2.3 mphMostly Cloudy
1:00 PM89.6 °F71.6 °F55 %29.92 in6.2 miSSW (200°)2.3 mphMostly Cloudy
2:00 PM86.0 °F75.2 °F70 %29.89 in6.2 miSE (140°)13.8 mphMostly Cloudy
3:00 PM84.2 °F73.4 °F70 %29.89 in6.2 miSouth (180°)11.5 mphMostly Cloudy
4:00 PM84.2 °F75.2 °F74 %29.86 in6.2 miSSE (160°)11.5 mphMostly Cloudy
4:00 PM86.0 °F74.0 °F59 %29.89 in31.0 miSE (140°)3.5 mphPartly Cloudy
5:00 PM84.2 °F75.2 °F74 %29.86 in6.2 miSE (140°)16.1 mphMostly Cloudy
6:00 PM82.4 °F75.2 °F79 %29.86 in6.2 miSSE (160°)11.5 mphMostly Cloudy
7:00 PM80.6 °F73.4 °F79 %29.86 in6.2 miSSE (160°)9.2 mphOvercast
8:00 PM78.8 °F75.2 °F89 %29.89 in6.2 miSSE (160°)9.2 mphOvercast
9:00 PM78.8 °F75.2 °F89 %29.92 in6.2 miCalmMostly Cloudy
10:00 PM77.0 °F72.0 °F79 %29.93 inCalmOvercast
10:00 PM78.8 °F75.2 °F89 %29.92 in6.2 miCalmMostly Cloudy
11:00 PM77.0 °F75.2 °F94 %29.92 in6.2 miCalmRainLight Rain
Hourly data recorded from SBCP, located miles away from Bonsucesso, Rio De Janeiro







STORIES FROM OUR PARTNERS